Regional Weather Roundup
Issued by NWS

Home | Current Version | Previous Version | Text Only | Print | Product List | Glossary Off
Versions: 1 2 3 4 5 6 7 8 9 10 11 12 13 14 15 16 17 18 19 20 21 22 23 24 25 26 27 28 29 30 31 32 33 34 35 36 37 38 39 40 41 42 43 44 45 46 47 48 49 50

000
ASUS43 KFSD 010610
RWRSD

WEATHER ROUNDUP FOR SOUTH DAKOTA
NATIONAL WEATHER SERVICE SIOUX FALLS SD
100 AM CDT MON SEP 01 2014

NOTE: "FAIR" INDICATES FEW OR NO CLOUDS BELOW 12,000 FEET WITH NO
SIGNIFICANT WEATHER AND/OR OBSTRUCTIONS TO VISIBILITY.


SDZ001>005-009-010-012>017-010700-
NORTHWEST AND NORTH CENTRAL SOUTH DAKOTA

CITY           SKY/WX    TMP DP  RH WIND       PRES   REMARKS
BUFFALO          N/A     49  47  93 W10       29.79S
FAITH            N/A     54  49  83 W7        29.82R
MOBRIDGE       MOCLDY    62  56  80 N9        29.76R
$$

SDZ012>016-024>037-041>051-057-063-072>074-010700-
SOUTHWEST AND SOUTH CENTRAL SOUTH DAKOTA

CITY           SKY/WX    TMP DP  RH WIND       PRES   REMARKS
RAPID CTY ARPT CLEAR     52  48  86 W9        29.88F
PIERRE         MOCLDY    61  57  87 W13       29.76S
CUSTER         PTCLDY    48  40  73 NW5       29.98R
ELLSWORTH AFB  CLEAR     51  48  90 W9        29.87F
PHILIP         PTCLDY    55  52  89 W6        29.82S
PINE RIDGE     PTCLDY    51  50  96 NW3       29.91R
WINNER         CLOUDY    62  58  86 W9        29.79S
$$

SDZ004>011-016>023-039-040-010700-
NORTHEAST SOUTH DAKOTA

CITY           SKY/WX    TMP DP  RH WIND       PRES   REMARKS
ABERDEEN       MOCLDY    61  60  97 CALM      29.71R
WATERTOWN      CLOUDY    63  61  93 W6        29.71S
SISSETON         N/A     62  61  96 NW7       29.67F
$$

SDZ017-020-022-023-036>040-048>070-010700-
SOUTHEAST SOUTH DAKOTA

CITY           SKY/WX    TMP DP  RH WIND       PRES   REMARKS
SIOUX FALLS    CLOUDY    62  59  90 NW6       29.70S
HURON          CLOUDY    62  60  93 CALM      29.70S
CHAMBERLAIN    LGT RAIN  62  60  94 NW5       29.76R
MITCHELL       CLOUDY    66  62  87 W10       29.73S
YANKTON        CLOUDY    63  61  94 NW8       29.71R
$$

ABBREVIATIONS USED IN REMARKS
   TC - TEMPERATURE IN CELSIUS
  WCI - WIND CHILL INDEX
   HX - HEAT INDEX
  VSB - VISIBILITY



USA.gov is the U.S. government's official web portal to all federal, state and local government web resources and services.